Theta_e
308 308 309 308 309 307 307 308 307 307 306 306 305 306 305 305 305 305 305 306 306 306 307 307 307 307 307 314 314 314 312 313 318 318 320 321 321 322 323 319 317 319 318 319 319 318 318
307 309 307 307 306 307 308 308 307 307 306 306 306 305 305 305 305 304 305 305 306 306 306 306 306 305 307 311 312 313 313 311 317 318 321 320 320 318 320 319 319 318 318 318 318 318 317
308 307 308 306 306 307 307 307 306 306 306 305 305 305 305 305 305 305 305 305 305 305 306 306 306 305 307 309 311 312 313 316 319 318 322 321 319 319 316 318 316 316 319 318 318 317 318
307 307 307 305 305 306 307 306 305 305 306 306 305 305 305 305 304 304 305 305 305 304 305 306 306 305 307 309 311 312 312 316 318 320 322 321 319 317 317 315 316 319 318 321 318 317 317
306 306 305 305 305 306 306 305 304 305 305 305 305 304 304 304 303 304 304 305 305 305 306 306 305 305 308 311 312 313 313 313 319 320 321 321 319 321 318 318 320 318 320 319 319 317 317
306 305 305 305 304 305 306 302 304 305 305 305 305 305 304 303 302 304 305 304 303 304 305 305 304 304 307 311 312 312 311 314 319 320 319 320 320 322 319 320 322 321 319 319 318 315 315
306 305 304 305 305 306 303 303 305 304 305 306 306 305 305 304 303 304 304 302 299 300 303 302 303 304 310 311 312 313 311 317 318 319 321 321 322 322 322 318 315 317 318 319 317 314 313
304 304 304 304 304 305 302 305 303 305 305 306 305 306 306 305 304 304 303 301 300 301 301 301 303 303 304 306 314 313 311 318 320 323 315 323 322 320 319 317 317 317 319 319 315 312 312
304 304 304 305 303 303 302 302 305 304 305 305 305 306 306 305 305 303 302 302 302 302 302 303 305 306 305 311 313 313 312 315 320 320 314 317 321 321 321 321 321 320 319 317 318 312 309
304 304 305 303 303 301 302 304 304 304 305 305 305 305 305 304 302 303 302 302 301 302 290 306 308 308 311 313 314 311 311 317 319 321 315 316 320 322 323 322 322 324 318 314 313 315 318
304 303 305 303 302 302 303 303 303 304 305 305 304 304 302 302 303 303 302 301 302 297 293 302 308 309 312 314 312 312 313 316 319 318 318 317 323 321 321 321 319 319 312 311 310 310 311
304 303 304 303 302 301 301 301 302 303 305 305 304 303 303 301 302 302 303 301 300 293 300 308 310 310 314 313 314 314 316 314 315 316 314 312 312 315 316 314 316 309 309 307 306 309 315
303 303 303 302 302 301 300 300 301 302 304 305 302 303 302 303 302 303 302 298 296 304 302 313 312 308 314 316 315 316 316 315 317 318 317 315 313 311 312 314 311 310 315 317 311 312 317
302 302 303 302 302 301 300 300 301 302 304 304 302 302 302 302 303 302 302 295 300 308 310 309 309 314 315 314 316 316 315 314 311 313 314 317 318 313 310 312 313 310 313 317 311 312 309
302 302 303 302 301 301 300 300 300 301 303 304 302 302 303 303 302 302 301 300 300 305 307 311 314 316 317 315 315 315 314 312 311 309 314 312 314 310 309 309 310 310 311 305 306 303 309
302 302 302 302 301 300 300 299 299 300 302 304 301 301 301 302 303 301 297 308 308 306 308 312 314 312 316 315 317 314 314 311 311 309 308 309 313 312 310 310 308 310 306 311 305 310 310
302 301 301 302 301 301 300 299 299 300 302 303 299 298 300 303 302 303 308 310 308 308 308 311 311 311 313 313 312 312 311 310 310 309 307 308 310 314 312 311 311 310 310 306 306 305 308
301 301 301 303 301 300 300 299 299 299 302 303 296 299 301 304 301 303 310 309 308 310 309 309 308 309 310 310 310 311 311 310 308 309 311 307 310 316 312 307 307 307 308 305 307 307 305
301 301 301 301 301 300 300 299 298 298 301 303 298 297 302 304 307 309 309 310 309 311 311 308 309 308 308 308 310 309 309 308 308 309 309 307 307 310 313 310 307 310 307 304 302 302 306
300 300 300 301 301 300 300 299 298 298 300 302 297 301 300 301 305 310 311 311 312 309 309 307 308 307 308 309 307 309 309 310 307 310 310 306 305 307 309 307 306 307 308 305 305 306 305
300 300 300 300 301 300 300 298 298 298 299 302 297 303 304 303 307 307 309 310 311 311 309 307 310 309 310 311 310 309 309 309 309 312 306 306 306 304 306 307 304 307 309 306 304 305 307
300 300 299 299 302 299 299 298 297 297 298 301 303 304 304 304 304 307 308 309 311 312 310 311 310 310 310 310 309 309 308 308 310 308 307 304 308 303 304 307 307 309 308 307 306 307 307
300 299 299 299 300 300 299 298 297 297 296 297 299 301 303 304 302 305 307 310 311 310 311 310 310 309 309 309 308 306 305 305 306 307 308 308 305 304 304 306 307 310 308 308 307 306 309
299 299 299 299 299 300 299 298 297 296 296 295 296 298 304 304 302 305 306 308 311 310 312 311 310 310 309 305 305 306 305 305 305 305 305 306 305 306 307 305 309 306 307 306 308 307 307
299 298 299 299 299 299 299 299 297 296 296 295 295 298 303 305 303 304 308 308 308 307 310 310 309 307 307 308 309 309 311 311 311 309 309 307 307 309 310 308 305 310 309 308 309 316 307
298 299 297 299 299 299 299 298 298 296 296 295 295 296 300 305 304 305 308 307 306 307 308 310 308 306 306 306 308 311 312 311 315 314 310 310 307 306 309 310 311 309 312 309 311 320 312
299 298 298 298 299 298 298 298 298 297 295 296 294 296 297 301 303 306 309 306 304 304 305 309 309 309 305 305 310 307 310 310 312 315 314 315 314 311 311 311 307 305 307 313 321 318 312
299 298 298 298 299 298 298 297 297 297 297 297 295 294 296 299 300 303 307 310 306 305 307 306 307 306 306 308 308 307 307 312 312 310 310 311 312 314 312 312 308 305 313 318 315 311 311
300 298 298 298 298 298 298 297 297 297 297 296 295 294 295 296 298 299 300 302 304 307 308 308 308 308 307 309 304 305 312 313 313 315 309 312 307 309 307 307 304 307 309 308 307 309 309
Wind_Speed
19 20 22 23 23 25 25 25 24 23 23 22 22 22 21 20 18 17 16 15 16 14 13 14 14 13 10 6 8 5 5 6 27 27 23 13 14 9 13 8 5 3 2 5 3 3 3
20 20 23 24 25 23 25 27 24 23 23 22 22 21 21 18 16 16 15 14 13 12 13 13 13 11 8 9 7 23 16 11 23 28 25 13 12 5 9 6 6 7 6 3 2 2 1
21 22 22 23 24 26 26 25 24 25 24 23 23 20 21 18 16 16 16 12 11 10 11 12 10 9 7 13 2 9 8 6 25 29 17 13 19 6 6 5 4 6 4 5 7 4 3
21 22 23 25 24 27 28 26 25 26 24 24 22 21 20 18 16 16 14 13 13 14 12 10 8 7 6 8 13 18 4 5 23 25 23 19 13 5 3 4 4 5 2 3 2 9 5
21 23 24 26 27 27 30 27 27 27 26 25 24 22 19 16 16 15 14 15 17 16 12 9 4 4 5 3 7 14 11 5 18 20 20 22 11 4 3 6 4 4 4 5 3 7 3
21 23 24 25 27 27 28 31 28 28 28 27 26 25 19 17 15 13 14 15 17 6 2 5 2 3 5 4 5 5 4 9 9 12 11 12 5 4 3 5 9 9 4 3 6 3 2
21 22 24 24 27 27 30 27 29 30 31 32 31 27 21 15 12 10 9 6 4 3 1 3 4 5 5 5 7 2 3 5 7 11 9 11 6 16 17 5 4 8 5 4 3 1 2
20 22 23 26 28 28 28 30 30 32 33 35 33 27 19 13 8 7 8 3 2 1 4 4 8 8 10 11 4 2 5 5 7 7 5 7 12 9 12 8 6 6 6 4 1 2 1
19 21 23 25 27 28 29 29 31 32 33 35 33 31 20 10 3 4 3 3 3 2 2 2 2 6 7 9 9 12 6 1 4 10 13 1 1 15 13 9 9 2 5 3 2 1 2
19 20 23 25 26 27 27 29 31 32 33 33 32 28 15 7 3 4 1 3 4 3 4 3 3 3 3 2 5 4 7 2 3 7 16 3 3 8 13 15 8 5 3 3 4 2 1
18 19 21 24 25 27 27 29 30 31 30 30 29 21 16 9 3 3 4 3 6 4 6 6 2 4 5 3 8 1 4 3 4 6 4 1 9 16 9 2 8 2 4 4 3 4 1
18 19 21 22 24 26 27 28 30 30 29 26 25 18 12 9 10 4 7 7 1 5 3 3 4 4 2 5 1 4 4 3 2 9 12 4 1 4 3 5 5 9 5 5 3 2 1
18 20 21 23 24 26 27 27 29 29 28 22 18 21 13 10 4 2 1 3 4 5 5 3 2 3 10 5 6 3 1 3 4 4 3 4 4 4 9 8 4 1 3 1 2 2 2
17 18 21 23 24 26 27 28 28 28 29 22 9 11 13 10 3 4 7 4 9 2 2 2 0 12 7 5 7 4 2 4 5 5 4 3 4 4 1 4 7 1 1 3 3 3 1
16 18 20 22 24 25 27 28 29 29 29 25 8 5 2 3 3 6 2 5 4 2 3 1 6 7 5 8 4 4 3 3 3 1 5 5 3 1 5 3 1 3 2 1 6 2 1
16 17 19 21 23 25 26 28 30 30 32 20 6 4 2 6 3 3 3 3 1 4 3 2 4 2 3 3 3 2 2 2 3 3 1 1 5 3 2 3 8 3 6 2 2 3 3
16 17 19 20 22 24 26 28 29 30 32 18 3 3 1 8 1 2 3 3 3 2 3 2 3 5 3 4 3 2 1 1 2 3 5 3 3 2 3 1 5 2 1 4 4 1 2
15 16 17 20 21 23 25 28 29 29 30 13 4 3 5 5 4 2 3 5 4 3 3 2 3 4 3 2 3 3 3 2 2 4 4 1 4 3 1 1 1 2 4 3 3 3 1
14 16 17 18 19 23 24 27 29 29 26 8 3 2 3 3 4 3 2 3 1 3 3 2 2 2 1 3 4 2 2 4 2 3 5 5 2 3 1 1 2 2 4 4 4 3 4
13 15 16 17 19 22 22 26 28 30 25 4 2 3 4 4 2 2 3 3 3 1 2 3 3 4 4 4 5 3 2 4 1 3 8 6 3 4 5 4 3 3 3 4 5 3 4
12 15 15 16 17 21 20 23 27 30 21 3 3 1 1 3 3 3 1 3 1 3 4 5 3 2 4 3 2 3 3 3 4 4 4 3 3 2 2 1 3 3 4 8 6 5 5
12 14 16 15 16 17 18 20 25 28 21 5 3 3 3 3 3 4 2 4 2 0 2 2 5 2 1 4 3 6 6 3 4 2 3 2 3 2 3 0 5 4 7 9 8 3 8
10 12 16 15 15 15 17 16 20 23 22 7 6 4 2 4 3 1 1 1 3 1 2 4 4 4 6 3 1 2 1 4 6 6 3 4 5 2 3 2 2 5 9 12 5 5 9
10 12 14 15 13 15 14 13 14 16 18 12 5 4 2 3 2 2 3 3 1 1 3 2 3 4 3 3 3 5 8 9 8 5 2 5 4 2 1 2 1 4 3 8 14 3 11
10 12 14 15 13 16 11 12 11 12 12 14 11 3 2 4 1 5 2 3 1 4 3 3 4 1 2 1 3 4 3 3 4 5 3 3 4 3 0 2 5 0 3 6 6 4 9
11 11 15 16 14 15 14 11 10 8 9 10 8 9 3 3 3 2 3 1 1 1 2 2 2 1 3 3 2 3 3 3 3 2 5 4 4 3 2 2 3 3 1 3 2 2 4
11 12 14 16 15 15 14 13 11 9 8 6 4 5 4 3 4 1 4 2 4 2 2 0 2 2 3 2 2 1 2 3 4 6 4 2 1 4 3 3 6 6 4 0 2 2 0
11 13 15 15 16 16 14 11 11 12 10 8 5 5 3 2 6 5 5 2 1 3 3 3 3 2 2 2 2 2 2 2 2 3 5 6 5 3 3 3 6 3 3 1 2 3 3
14 12 13 15 17 16 16 10 12 13 12 8 6 7 6 4 5 9 21 24 11 2 2 1 3 3 4 3 1 2 2 2 2 2 0 4 5 4 6 5 4 2 2 3 2 3 3
Wind_Direction
345 341 341 341 337 340 335 331 330 329 324 323 324 321 321 324 322 322 319 316 308 300 291 284 284 287 296 235 234 215 303 305 197 193 197 181 170 175 188 179 122 178 189 196 199 126 173
344 342 341 342 339 334 334 330 331 331 324 321 321 322 320 320 319 318 316 316 310 295 291 289 289 282 244 258 231 236 285 302 183 191 193 177 177 155 163 182 173 183 186 167 217 226 221
344 343 341 343 337 333 339 336 336 329 324 326 322 320 316 313 314 313 315 315 313 303 294 286 289 285 240 228 341 257 281 263 193 192 182 182 157 151 130 127 178 128 143 249 229 200 242
346 344 340 342 339 334 339 337 337 332 327 325 326 320 314 311 314 311 312 312 301 295 285 279 276 281 251 235 267 245 282 293 179 189 183 192 171 109 126 118 75 118 89 164 239 174 219
345 347 344 344 342 338 341 342 338 333 332 329 325 321 319 308 314 311 306 304 303 300 280 259 248 197 253 239 230 234 239 267 168 176 178 173 163 151 108 120 101 172 187 197 299 190 137
348 347 347 348 345 342 343 340 334 335 332 329 326 319 312 309 309 308 309 306 313 321 159 178 259 125 255 203 169 128 230 223 161 155 164 179 175 145 129 173 190 168 136 175 200 178 160
347 348 348 347 343 348 344 338 341 339 335 331 326 318 302 296 304 311 325 337 22 4 46 191 197 243 141 106 143 183 193 145 148 140 178 181 172 197 186 148 161 134 135 167 197 112 193
350 350 348 348 350 349 346 349 344 343 341 340 336 325 308 286 287 307 314 145 174 183 315 258 249 275 285 312 166 253 190 180 157 181 53 156 204 182 156 141 133 131 142 188 85 71 153
350 350 349 351 350 352 349 347 345 346 348 351 347 343 322 260 239 295 167 179 124 213 285 343 149 235 240 218 132 198 186 213 121 131 132 120 267 161 165 167 138 132 154 169 129 43 79
351 350 350 350 352 354 352 347 348 350 353 355 358 2 20 107 94 121 340 352 192 163 77 14 131 173 257 126 95 155 179 115 76 129 125 156 161 125 148 181 168 152 96 105 111 91 275
349 351 352 351 353 355 355 351 350 353 355 1 7 17 29 45 81 21 348 76 126 71 68 298 354 342 44 346 141 88 22 360 112 94 154 57 157 155 151 102 109 133 132 118 101 98 56
347 353 352 354 354 356 355 351 349 353 356 1 13 23 25 46 50 48 105 133 53 39 38 344 31 24 207 124 117 111 84 11 171 59 47 69 69 66 94 63 101 154 80 58 55 95 63
347 350 353 354 356 357 358 354 350 352 354 357 12 25 49 45 19 27 50 13 30 55 281 62 74 339 120 120 115 104 128 94 103 119 74 43 16 73 114 77 43 44 136 57 24 47 210
347 350 352 354 356 358 358 355 351 351 349 349 341 21 39 43 58 32 337 41 56 22 2 56 277 138 102 126 73 74 163 87 60 71 109 119 114 359 28 138 160 133 179 158 186 182 210
346 350 351 354 355 357 356 356 351 351 348 344 329 290 5 12 302 311 19 47 158 284 307 39 85 58 52 53 80 77 347 77 43 52 128 131 80 14 43 91 85 186 97 133 104 24 6
344 350 350 355 353 356 356 357 353 351 348 342 341 309 267 328 315 72 71 76 3 195 242 172 81 49 88 87 78 86 53 282 105 35 44 115 93 35 167 72 39 98 136 89 11 138 248
344 345 346 353 352 355 357 356 355 353 351 345 354 38 319 339 360 51 53 35 313 281 214 110 167 105 105 136 125 124 49 348 75 54 77 110 86 26 121 74 160 118 118 59 104 102 174
340 342 346 348 352 354 356 356 357 356 354 357 360 31 343 0 54 18 12 335 331 305 221 265 100 91 103 133 77 83 127 168 182 134 79 59 114 112 118 164 198 149 154 144 124 206 99
336 342 345 347 348 353 355 355 356 357 359 331 351 282 349 351 68 19 321 305 266 323 343 31 92 103 97 115 107 104 104 343 146 97 155 177 57 97 126 176 14 183 169 121 97 71 203
338 341 345 347 346 352 354 355 355 356 356 351 37 6 327 35 151 97 5 312 338 236 319 20 102 68 93 61 28 133 102 10 235 76 90 90 110 149 181 199 133 166 168 172 134 152 179
336 341 345 345 347 351 352 357 357 358 1 12 32 41 15 317 357 354 147 289 333 1 347 30 56 65 141 115 98 111 106 110 31 116 61 95 117 111 254 156 130 198 176 184 198 188 172
335 343 340 340 346 350 352 359 2 2 8 65 8 352 334 281 287 299 18 10 1 329 339 3 109 40 150 136 175 185 135 149 178 65 102 23 127 96 346 152 204 242 222 198 218 228 264
328 340 335 338 339 344 351 357 7 8 17 25 348 324 296 306 338 50 269 295 307 234 51 60 145 95 49 323 215 136 95 118 147 139 129 114 132 88 273 351 299 281 223 198 185 205 210
317 331 330 336 333 339 346 351 7 11 12 21 349 307 298 288 299 214 322 325 355 325 150 21 51 98 164 149 124 65 62 72 70 41 123 120 104 88 235 9 312 246 159 189 202 201 218
313 324 332 332 327 338 334 344 352 4 3 0 349 313 314 285 336 292 329 247 356 39 63 72 11 73 118 73 76 63 18 45 49 36 41 131 119 113 130 242 285 345 178 140 175 203 205
311 304 320 326 324 326 324 337 332 346 349 340 359 352 301 312 243 304 309 319 174 79 19 50 67 34 75 79 83 158 181 155 159 94 31 73 91 118 182 266 224 248 2 152 191 182 186
289 299 313 322 317 323 321 320 322 314 327 306 317 352 316 280 276 300 238 212 135 113 130 261 163 84 38 77 89 109 182 153 161 172 162 138 141 182 220 240 273 252 237 264 163 174 272
277 293 312 314 321 318 303 305 309 308 312 289 260 322 284 276 287 285 294 264 323 128 153 212 66 358 61 85 134 187 153 214 125 160 164 184 185 187 169 210 268 215 101 191 244 269 249
272 296 307 312 319 316 326 322 302 305 306 290 254 272 254 238 278 301 282 272 260 220 150 164 187 157 166 106 140 127 171 158 191 228 341 206 183 187 180 213 234 282 279 286 255 241 297